This is the latest recevied weather packets stored in our database for station/object YB2YEN-13. If no packets are shown the sender has not sent any weather packets the latest 10 day(s).
| Time | Temp. | Humidity | Pressure | Rain* | Wind** | Luminosity | Snow |
|---|---|---|---|---|---|---|---|
| 1777961588 | 32.78° C | 75% | 977 hPa | - | - | 0 W/m² | - |
| 1777961266 | 33.33° C | 70% | 977 hPa | - | - | 0 W/m² | - |
| 1777960944 | 33.33° C | 70% | 977 hPa | - | - | 0 W/m² | - |
| 1777960622 | 33.33° C | 71% | 977 hPa | - | - | 0 W/m² | - |
| 1777960300 | 33.33° C | 70% | 977 hPa | - | - | 0 W/m² | - |
| 1777959978 | 33.33° C | 70% | 977 hPa | - | - | 0 W/m² | - |
| 1777959656 | 33.33° C | 67% | 977 hPa | - | - | 0 W/m² | - |
| 1777959334 | 33.33° C | 68% | 977 hPa | - | - | 0 W/m² | - |
| 1777959012 | 33.33° C | 67% | 977 hPa | - | - | 0 W/m² | - |
| 1777958690 | 32.78° C | 71% | 977 hPa | - | - | 0 W/m² | - |
| 1777958368 | 33.33° C | 62% | 977 hPa | - | - | 0 W/m² | - |
| 1777958046 | 33.33° C | 67% | 977 hPa | - | - | 0 W/m² | - |
| 1777957724 | 32.78° C | 69% | 977 hPa | - | - | 0 W/m² | - |
| 1777957402 | 33.33° C | 68% | 978 hPa | - | - | 0 W/m² | - |
| 1777957080 | 32.22° C | 65% | 978 hPa | - | - | 0 W/m² | - |
| 1777956758 | 32.22° C | 72% | 978 hPa | - | - | 0 W/m² | - |
| 1777956436 | 31.67° C | 74% | 978 hPa | - | - | 0 W/m² | - |
| 1777956114 | 32.22° C | 72% | 978 hPa | - | - | 0 W/m² | - |
| 1777955792 | 32.78° C | 80% | 978 hPa | - | - | 0 W/m² | - |
| 1777955470 | 33.33° C | 85% | 978 hPa | - | - | 0 W/m² | - |
| 1777955148 | 32.22° C | 85% | 978 hPa | - | - | 0 W/m² | - |
| 1777954826 | 32.22° C | 81% | 978 hPa | - | - | 0 W/m² | - |
| 1777954503 | 31.67° C | 81% | 978 hPa | - | - | 0 W/m² | - |
| 1777954182 | 32.78° C | 79% | 978 hPa | - | - | 0 W/m² | - |
| 1777953860 | 32.22° C | 87% | 978 hPa | - | - | 0 W/m² | - |
* Rain since midnight (hover to see other rain measurements)
** Current wind speed in m/s (hover to see current wind gust speed)